カタログに戻る

STARLINK-36506

運用中通信VLEO
NORAD 67414·PAYLOAD·🇺🇸 United States

打ち上げ Jan 12, 2026 から Cape Canaveral Space Force Station

Loading…

次のパス (今後24時間)

TLE

最新Source: CelesTrak SupGP

元期: Sep 15, 2026, 04:09 UTC

1 67414C 26005L   26258.17340278 -.00033542  00000+0 -12151-2 0  2588
2 67414  43.0004 247.6886 0000970 269.6982 237.2513 15.27589356    19

AllMySatでSTARLINK-36506をリアルタイム追跡

Download on the App Store